Tracking 22836 objects as of 16-Apr-2021
HD Live streaming from Space Station
objects crossing your sky now

STARLINK-1294

Track STARLINK-1294 now!
10-day predictions
STARLINK-1294 is classified as:


NORAD ID: 45551
Int'l Code: 2020-025W
Perigee: 553.4 km
Apogee: 555.3 km
Inclination: 53.1 °
Period: 95.6 minutes
Semi major axis: 6925 km
RCS: Unknown
Launch date: April 22, 2020
Source: United States (US)
Launch site: AIR FORCE EASTERN TEST RANGE (AFETR)
aabbcc
Your satellite tracking list
Your tracking list is empty




NASA's NSSDC Master Catalog

Two Line Element Set (TLE):
1 45551U 20025W   21106.25587387  .00000909  00000-0  79933-4 0  9997
2 45551  53.0594 195.1988 0001396 114.6211 245.4923 15.06391676 55209
Source of the keplerian elements: AFSPC